sat.trackr.live / text

‹ back to catalog

STARLINK-6369

NORAD 57374 · 2023-099AY

PAYLOAD ACTIVE UNKNOWN

§ Identity

Operator
Country
US
Launch date
2023-07-16
Launch site
AFETR
Launch vehicle
Mass (kg)
RCS (m²)

Purposes: comms

External: N2YO · Heavens-Above · Gunter

§ Orbital elements

Epoch: 2026-09-20T04:37:00.380064Z

Period
94.27 min
Inclination
43.0022°
Eccentricity
0.0001583
Mean motion
15.27567919 rev/d
Perigee alt
482.0 km
Apogee alt
484.2 km
Semi-major
6,861.2 km
B*
-3.0037e-5
RAAN
205.3070°
Arg perigee
244.8264°
Mean anomaly
115.2424°
Rev number
17,615

§ Raw data

STARLINK-63691 57374U 23099AY  26263.19236551 -.00001088  00000+0 -30037-4 0  99952 57374  43.0022 205.3070 0001583 244.8264 115.2424 15.27567919176154

JSON: /api/v1/satellites/57374 · /tle

For live sub-satellite position, see the globe view (requires WebGL).

§ Visibility from observer

Set your observer location to see the next 7 days of passes ≥ 10°. The values pass through the URL so the page stays shareable.

No JS? Fill the form by hand. The geolocation button needs JavaScript.